Content
SEND FEEDBACK

Daily
Averages
Monthly
Summary
Germany

GARMISCH-PARTENKIRCHEN, GERMANY


Home > Europe > Germany
Elevation: 2322 feet     Latitude: 47 30N     Longitude: 011 06E

WEATHER
 
SELECT A DAY
Number of Records: 311,106;   Date Range: 7/1/96 - 7/28/14
 
SHARE

PRINT THIS DATA

[ ← Previous Day ]
WEATHER ALMANAC - FEBRUARY 19, 2013
[ Next Day → ]
[ °C ]   °F
Weather ElementAverageHighLow
Temperature29.5 °F39.2 °F (1:50 pm)17 °F (7:00 am)
Dewpoint19.7 °F32 °F (10:20 pm)13 °F (1:00 pm)
Humidity69.1 %100 % (10:50 pm)26 % (1:00 pm)
Barometer29.99 in30.22 in (1:00 am)29.86 in (4:20 pm)
Wind Speed3.5 mph11.2 mph (10:00 pm)
Weather ElementAverage
Visibility7.7 mi
Wind DirectionESE (111 °)

Weather ElementTotal
Precipitation---
Heating Degree Days36.9 (Base 65)
Averaged from 55 records on February 19, 2013
WEATHER CONDITIONS BREAKOUT
WIND DIRECTION BREAKOUT
WEATHER BY HOUR - FEBRUARY 19, 2013
[ °C ]   °F
Local TimeTemperatureDewpointHumidityBarometerVisibilityWind DirectionWind SpeedGust SpeedPrecipitationEventsConditions
12:50 AM23.0 °F19.4 °F86 %30.09 in6.2 miWSW (250°)3.5 mph
1:00 AM24.0 °F19.0 °F74 %30.22 in7.0 miWSW (250°)4.5 mph
1:20 AM21.2 °F17.6 °F86 %30.09 in5.6 miVariable2.3 mph
1:50 AM19.4 °F15.8 °F86 %30.09 in6.2 miWest (260°)2.3 mph
2:20 AM21.2 °F17.6 °F86 %30.06 in6.2 miWSW (250°)3.5 mph
2:50 AM19.4 °F15.8 °F86 %30.06 in6.2 miWSW (250°)3.5 mph
3:20 AM19.4 °F17.6 °F93 %30.06 in5.6 miWSW (250°)2.3 mphPartly Cloudy
3:50 AM19.4 °F15.8 °F86 %30.06 inWSW (240°)2.3 mphClear
4:00 AM18.0 °F15.0 °F85 %30.22 in6.0 miWSW (240°)2.2 mph
4:20 AM19.4 °F15.8 °F86 %30.06 inVariable2.3 mphClear
4:50 AM17.6 °F14.0 °F86 %30.06 inVariable2.3 mphClear
5:20 AM19.4 °F15.8 °F86 %30.06 inWSW (250°)3.5 mphClear
5:50 AM17.6 °F15.8 °F93 %30.06 inWest (260°)3.5 mphClear
6:20 AM17.6 °F15.8 °F93 %30.06 inWest (260°)3.5 mphClear
6:50 AM17.6 °F15.8 °F93 %30.04 inVariable1.2 mphClear
7:00 AM17.0 °F16.0 °F92 %30.21 in6.0 mi°2.2 mphScattered Clouds
7:20 AM17.6 °F15.8 °F93 %30.04 inWSW (250°)2.3 mphClear
7:50 AM17.6 °F15.8 °F93 %30.04 inVariable1.2 mphClear
8:20 AM19.4 °F17.6 °F93 %30.06 inWest (260°)3.5 mphClear
8:50 AM24.8 °F19.4 °F80 %30.04 inVariable1.2 mphClear
9:20 AM24.8 °F17.6 °F74 %30.04 inWest (260°)2.3 mphClear
9:50 AM26.6 °F17.6 °F69 %30.04 inVariable2.3 mphClear
10:00 AM26.0 °F17.0 °F57 %30.15 in31.0 mi°2.2 mphScattered Clouds
10:20 AM30.2 °F15.8 °F55 %30.01 inVariable1.2 mphClear
10:50 AM32.0 °F17.6 °F55 %30.01 in6.2 miVariable2.3 mphMostly Cloudy
11:20 AM32.0 °F14.0 °F48 %29.98 in6.2 miWest (280°)3.5 mphMostly Cloudy
11:50 AM33.8 °F14.0 °F44 %29.98 in6.2 miWest (270°)2.3 mphMostly Cloudy
12:20 PM37.4 °F15.8 °F41 %29.95 in6.2 miVariable1.2 mphMostly Cloudy
12:50 PM35.6 °F14.0 °F41 %29.95 in6.2 miSW (230°)3.5 mphMostly Cloudy
1:00 PM36.0 °F13.0 °F26 %30.01 in31.0 miSW (230°)4.5 mphScattered Clouds
1:20 PM37.4 °F14.0 °F38 %29.92 in6.2 miVariable2.3 mphMostly Cloudy
1:50 PM39.2 °F15.8 °F39 %29.92 in6.2 miVariable1.2 mphMostly Cloudy
2:20 PM39.2 °F17.6 °F42 %29.89 in6.2 miVariable2.3 mphOvercast
2:50 PM39.2 °F14.0 °F36 %29.89 in6.2 miVariable1.2 mphOvercast
3:20 PM39.2 °F19.4 °F45 %29.89 in6.2 miVariable2.3 mphMostly Cloudy
3:50 PM39.2 °F17.6 °F42 %29.89 in6.2 miESE (110°)8.1 mphMostly Cloudy
4:00 PM39.0 °F18.0 °F29 %29.94 in31.0 miESE (110°)8.9 mphOvercast
4:20 PM39.2 °F19.4 °F45 %29.86 in6.2 miEast (100°)5.8 mphMostly Cloudy
4:50 PM39.2 °F23.0 °F52 %29.86 in6.2 miVariable2.3 mphMostly Cloudy
5:20 PM39.2 °F24.8 °F56 %29.86 in6.2 miVariable2.3 mphMostly Cloudy
5:50 PM37.4 °F24.8 °F60 %29.86 in6.2 miVariable2.3 mphMostly Cloudy
6:20 PM37.4 °F26.6 °F65 %29.86 in6.2 miSE (130°)3.5 mphMostly Cloudy
6:50 PM37.4 °F23.0 °F56 %29.89 in6.2 miVariable2.3 mphMostly Cloudy
7:00 PM37.0 °F24.0 °F46 %29.95 in12.0 mi°2.2 mphOvercast
7:20 PM37.4 °F24.8 °F60 %29.89 in6.2 miVariable1.2 mphMostly Cloudy
7:50 PM35.6 °F24.8 °F65 %29.89 in6.2 miVariable2.3 mphMostly Cloudy
8:20 PM35.6 °F24.8 °F65 %29.89 in6.2 miESE (110°)4.6 mphMostly Cloudy
8:50 PM35.6 °F24.8 °F65 %29.89 in6.2 miESE (110°)4.6 mphMostly Cloudy
9:20 PM35.6 °F26.6 °F70 %29.92 in6.2 miESE (110°)6.9 mphSnowLight Snow
9:50 PM33.8 °F30.2 °F87 %29.92 in3.1 miENE (70°)10.4 mphSnowSnow
10:00 PM34.0 °F30.0 °F79 %30.01 in3.0 miENE (70°)11.2 mphSnowLight Snow
10:20 PM33.8 °F32.0 °F93 %29.92 in1.6 miEast (80°)9.2 mphSnowSnow
10:50 PM32.0 °F32.0 °F100 %29.92 in2.8 miENE (70°)5.8 mphSnowLight Snow
11:20 PM32.0 °F32.0 °F100 %29.92 inEast (80°)4.6 mphSnowLight Snow
11:50 PM32.0 °F32.0 °F100 %29.92 in1.6 miEast (80°)4.6 mphSnowSnow
Hourly data recorded from LOWI, located miles away from Garmisch-Partenkirchen, Germany







STORIES FROM OUR PARTNERS